Location: Marigliano
(40.9333°N, 14.4500°E)
Time: 10:48:55
(UTC+00:00)

Daily predictions for brighter satellites

Satellite Brightness Start Highest point End
(mag) Time Altitude Azimuth Time Altitude Azimuth Time Altitude Azimuth
Cosmos 1606 3.1 18:42:15 10° N 18:45:55 44° E 18:49:34 10° SSE
Cosmos 2221 2.5 18:47:16 10° N 18:51:37 78° E 18:55:57 10° S
Cosmos 2151 3.9 18:49:07 10° SSE 18:52:46 29° E 18:56:28 10° NNE
SJ-6B 2.6 18:50:02 10° SSE 18:53:43 85° E 18:57:29 10° N
Cosmos 158 Rocket 4.2 18:50:42 10° S 18:55:38 50° ESE 19:00:44 10° NNE
ISS -3.4 18:52:36 10° NW 18:55:57 59° NNE 18:59:15 10° ESE
Nadezhda 4 Rocket 4.1 18:50:59 10° SSE 18:56:58 56° E 19:03:02 10° NNE
Cosmos 2084 4.5 18:54:11 10° SSE 18:57:17 22° ESE 19:00:27 10° ENE
Cosmos 1980 Rocket 2.3 18:53:40 10° NNW 18:59:20 89° WSW 19:04:59 10° SSE
ERS-2 2.7 18:58:35 10° NNE 19:01:59 36° E 19:05:21 10° SSE
Cosmos 2369 4.3 19:01:22 10° NNW 19:06:54 56° WSW 19:12:24 10° S
Helios 1A Rocket 3.1 19:03:17 10° S 19:07:18 72° WSW 19:11:24 10° NNW
GEOS 3 Rocket 4.4 19:04:19 10° NNE 19:09:24 57° NW 19:14:23 10° SW
Cosmos 371 Rocket 3.3 19:06:02 10° NNW 19:10:52 76° ENE 19:15:40 10° SSE
Cosmos 2322 Rocket 3.5 19:07:15 10° N 19:11:56 26° NE 19:16:06 12° ESE
USA 276 3.0 19:15:34 10° NW 19:18:35 40° NNE 19:20:56 15° E
SAR-Lupe-4 4.5 19:22:59 10° N 19:26:30 52° WNW 19:29:58 10° SSW
Cosmos 1633 3.6 19:23:56 10° SSW 19:27:25 46° W 19:30:55 10° N
BREEZE-M DEB (TANK) 3.3 19:26:55 10° WSW 19:30:05 75° NNW 19:40:19 10° ENE
Cosmos 1680 Rocket 3.7 19:27:51 10° S 19:32:53 48° ESE 19:37:56 10° NNE
Cosmos 2112 Rocket 4.4 19:28:28 10° S 19:33:24 41° ESE 19:38:19 10° NE
Cosmos 1076 Rocket 4.4 19:30:16 10° SSW 19:34:29 51° W 19:38:46 10° N
Resurs 01 Rocket 1.6 19:31:16 14° SSE 19:35:01 74° ENE 19:39:29 10° N
Terra 3.7 19:40:07 13° E 19:41:57 16° ENE 19:44:45 10° NNE
SL-16 R/B 2.4 19:37:16 10° NNW 19:42:53 58° ENE 19:46:27 22° SE
Cosmos 1151 Rocket 3.9 19:39:15 10° NNE 19:43:13 33° ENE 19:44:56 24° ESE
Meteor 2-3 Rocket 3.7 19:39:31 10° S 19:45:10 83° E 19:50:56 10° N
SPOT 3 Rocket 3.5 19:41:43 17° SSE 19:45:43 74° ENE 19:50:57 10° N
NOSS 2-1 (E) 3.1 19:43:24 10° SSW 19:46:39 43° ESE 19:49:46 10° NE
Cosmos 332 Rocket 3.9 19:44:32 10° NNW 19:49:27 78° WSW 19:52:56 19° S
CZ-2C R/B 3.7 19:47:04 10° NNE 19:51:30 56° E 19:54:30 19° S
Cosmos 1766 Rocket 3.8 19:50:48 25° SSE 19:52:59 47° E 19:57:11 10° NNE
Cosmos 1933 3.3 19:50:18 10° N 19:54:21 81° W 19:56:51 22° S
Cosmos 1271 Rocket 2.7 19:51:38 10° N 19:55:39 85° E 19:57:43 28° SSE
Gbstr 26 Del rocket 2.7 19:52:50 10° NW 19:56:35 73° NE 19:58:12 33° ESE
Cosmos 1328 Rocket 4.3 19:52:44 10° N 19:56:49 35° ENE 19:58:06 29° ESE
SPOT 5 3.7 19:57:34 24° E 19:58:48 28° ENE 20:02:34 10° N
IGS 5A 4.0 19:56:07 16° S 19:59:18 55° W 20:03:23 10° NNW
ARIANE 5 R/B 3.4 19:58:58 28° ESE 20:00:27 37° ENE 20:04:32 10° N
Cosmos 1862 4.0 20:04:11 34° ESE 20:04:29 34° E 20:08:06 10° NNE
Ariane Rocket 4.2 20:00:14 10° SSW 20:04:56 38° W 20:09:39 10° NNW
JB-3 4.3 20:01:12 10° NNE 20:05:18 71° E 20:07:17 29° S
Landsat 7 4.3 20:02:50 17° S 20:06:24 59° W 20:11:06 10° NNW
Cosmos 1782 2.7 20:06:17 10° N 20:10:18 88° E 20:11:44 39° S
Cosmos 1624 Rocket 4.3 20:09:11 10° N 20:14:17 52° ENE 20:16:05 35° ESE
Cosmos 220 Rocket 4.0 20:13:04 10° NNW 20:17:25 70° ENE 20:18:36 46° SE
ATLAS 3B R/B 4.0 20:15:30 10° NW 20:21:55 36° WSW 20:27:19 15° S
Cosmos 2360 Rocket 2.5 20:16:25 10° NNW 20:21:57 53° ENE 20:23:55 36° ESE
Atlas Centaur 2 3.8 20:27:11 10° SW 20:27:39 11° SW 20:27:39 11° SW
USA 267 4.3 20:23:56 10° ENE 20:27:32 24° E 20:27:32 24° E
NOSS 2-1 (C) 4.0 20:27:43 10° SW 20:30:55 42° NW 20:34:04 10° NNE
ISS -1.5 20:30:16 10° W 20:32:13 16° SW 20:32:13 16° SW
Cosmos 1500 Rocket 4.5 20:34:48 34° ENE 20:34:48 34° ENE 20:38:19 10° NNE
COSMOS 2455 3.0 20:34:51 41° SSE 20:36:17 50° ESE 20:42:04 10° NE
Cosmos 1833 4.1 20:33:10 21° SSW 20:37:09 81° ESE 20:42:58 10° NNE
NOSS 2-1 (D) 4.5 20:35:37 10° WSW 20:38:42 34° NW 20:41:46 10° NNE
Cosmos 1812 2.6 20:36:30 10° N 20:40:22 83° W 20:40:31 80° SW
SPOT 1/Viking Rocket 4.4 20:38:27 24° SSW 20:41:12 44° W 20:46:12 10° NNW
ERS-1 Rocket 2.9 20:40:26 53° SSE 20:41:39 83° ENE 20:46:42 10° NNW
GP-B 4.0 20:37:35 10° N 20:41:50 45° W 20:44:01 25° SW
Meteor 1-27 Rocket 4.4 20:37:03 10° N 20:42:23 40° ENE 20:43:21 37° E
Cosmos 2333 Rocket 3.0 20:37:45 10° N 20:43:02 39° ENE 20:44:24 34° E
USA 245 4.5 20:42:07 31° SSW 20:43:58 46° W 20:47:57 10° NNW
Meteor 2-16 Rocket 4.4 20:42:27 44° SSE 20:44:19 66° E 20:50:20 10° NNE
BREEZE-M DEB (TANK) 4.5 20:40:23 10° WNW 20:44:40 67° SSW 20:49:45 33° SE
Cosmos 1452 Rocket 4.5 20:40:25 10° N 20:45:09 33° ENE 20:45:57 31° E
SL-27 R/B 3.2 20:44:42 44° WSW 20:45:20 51° WNW 20:48:52 10° N
Cosmos 2322 4.3 20:44:50 10° N 20:50:16 42° ENE 20:51:30 37° E
Cosmos 1408 Rocket 3.5 20:50:55 66° SW 20:51:28 78° W 20:55:49 10° N
H-2A R/B 4.4 20:47:39 10° NNE 20:50:38 36° ENE 20:50:38 36° ENE
Cosmos 2056 Rocket 3.6 20:49:51 10° NNW 20:55:09 69° WSW 20:56:16 53° SSW
Cosmos 1743 Rocket 3.8 20:55:46 55° ENE 20:55:46 55° ENE 20:59:39 10° NNE
Cosmos 2237 Rocket 4.4 20:52:27 10° NNE 20:55:21 14° NE 20:57:41 11° ENE
Cosmos 2322 Rocket 2.8 20:50:49 10° NW 20:56:10 47° WSW 20:57:54 35° SSW
Spot 2 Rocket 4.4 21:03:04 32° SW 21:04:40 41° W 21:09:30 10° NNW
Meteor 1-10 Rocket 4.1 21:00:40 10° NNW 21:06:14 79° W 21:07:16 59° SSW
Cosmos 2219 Rocket 2.4 21:08:25 10° NNW 21:13:55 55° ENE 21:14:26 53° E
BREEZE M DEB (TANK) 4.3 21:11:46 10° W 21:16:06 79° N 21:49:31 10° E
Terra 2.1 21:19:00 58° WSW 21:19:11 59° W 21:23:54 10° NNW
Cosmos 1515 Rocket 4.2 21:16:23 10° NNW 21:20:37 48° W 21:20:37 48° W
IRIDIUM 114 4.4 21:16:09 10° N 21:21:09 64° ENE 21:21:09 64° ENE
Cosmos 2266 Rocket 4.0 21:19:57 50° SSW 21:21:39 75° W 21:27:55 10° N
Cosmos 489 Rocket 4.4 21:22:01 62° ESE 21:22:21 63° ESE 21:28:38 10° NNE
Cosmos 2285 Rocket 4.0 21:19:14 10° NNW 21:25:30 66° ENE 21:26:17 60° ESE
SL-16 R/B 4.1 21:22:32 10° NW 21:26:27 20° W 21:28:19 17° SW
Cosmos 468 4.5 21:29:46 75° NE 21:29:46 75° NE 21:34:37 10° NNE
Cosmos 2315 Rocket 3.9 21:23:48 10° N 21:30:10 80° E 21:30:56 69° SE
IRIDIUM 103 4.3 21:25:16 10° N 21:30:18 77° NE 21:30:18 77° NE
Cosmos 494 Rocket 4.3 21:32:48 55° NE 21:32:48 55° NE 21:36:57 10° NNE
ATLAS 5 CENTAUR R/B 3.0 21:26:30 10° NNW 21:31:57 47° NE 21:33:05 42° E
Cosmos 2333 4.1 21:27:32 10° NNW 21:33:07 72° WSW 21:33:17 72° SW
Cosmos 2228 Rocket 3.6 21:31:44 10° N 21:35:17 56° N 21:35:17 56° N
SPOT 5 4.3 21:36:48 24° W 21:36:53 24° W 21:40:28 10° NW
COSMOS 2428 2.6 21:35:48 10° NNW 21:41:31 76° ENE 21:41:31 76° ENE
NOSS 3-1 (C) 4.1 21:39:47 10° NW 21:47:32 72° WSW 21:49:23 57° S
Cosmos 1048 Rocket 4.2 21:48:39 64° WNW 21:48:39 64° WNW 21:53:40 10° NNE
IRIDIUM 106 4.5 21:43:32 10° N 21:48:29 69° WNW 21:48:29 69° WNW
ALOS 2 4.1 21:59:22 30° NE 21:59:22 30° NE 22:02:09 10° N
USA 229 DEB 3.8 21:55:57 10° NW 22:03:24 87° WSW 22:04:27 70° SSE
USA 229 3.8 21:56:03 10° NW 22:03:31 88° SW 22:04:33 70° SSE
Cosmos 2360 Rocket 3.9 22:01:23 10° NW 22:05:29 21° W 22:05:41 21° WSW
USA 267 3.2 22:06:13 10° NE 22:12:47 80° NW 22:14:48 48° WSW
Nadezhda 1 Rocket 4.5 22:07:04 10° N 22:13:14 49° ENE 22:13:14 49° ENE
Cosmos 1980 4.1 22:12:20 10° NNW 22:17:31 56° NE 22:17:31 56° NE
NOSS 0 Rocket 3.9 22:12:51 10° NNW 22:18:53 82° NNE 22:18:53 82° NNE
COSMOS 2455 4.5 22:17:53 13° WSW 22:22:27 29° NW 22:27:41 10° NNE
Lacrosse 5 2.9 22:25:49 40° NNE 22:25:49 40° NNE 22:29:05 10° NE
NOSS 3-1 (A) 4.1 22:16:16 10° NW 22:24:00 70° WSW 22:25:00 64° SSW
Cosmos 2333 Rocket 3.5 22:22:17 10° NW 22:26:23 29° W 22:26:23 29° W
Cosmos 2297 Rocket 2.6 22:32:07 57° NE 22:32:07 57° NE 22:36:37 10° NNE
BREEZE-M R/B 4.0 22:31:56 35° N 22:31:56 35° N 22:36:05 10° ENE
Cosmos 2237 Rocket 2.5 22:34:37 10° NNW 22:39:29 65° N 22:39:29 65° N
Cosmos 2227 Rocket 2.7 22:44:30 53° NE 22:44:30 53° NE 22:48:50 10° NNE
USA 234 3.7 22:42:59 42° E 22:44:57 58° NE 22:51:21 10° NW
Cosmos 2263 Rocket 4.3 22:57:34 15° E 22:57:34 15° E 22:59:26 10° ENE
Cosmos 2219 Rocket 4.1 22:53:26 10° NW 22:56:08 19° W 22:56:08 19° W
SL-16 R/B 2.8 23:04:22 10° NNW 23:09:38 49° NE 23:09:38 49° NE
ATLAS 5 CENTAUR R/B 3.7 23:11:16 10° NW 23:14:35 28° W 23:14:35 28° W
Meteor 1-11 Rocket 4.0 23:25:58 61° N 23:25:58 61° N 23:30:30 10° N
Cosmos 1709 Rocket 4.1 23:30:39 67° WNW 23:30:39 67° WNW 23:36:45 10° N
ASTEX 1 4.5 23:35:16 39° NE 23:35:16 39° NE 23:39:03 10° N
Cosmos 2219 4.3 23:42:23 35° WNW 23:42:42 35° WNW 23:47:57 10° N
CZ-2D R/B 3.7 23:41:24 10° NE 23:45:32 26° E 23:45:32 26° E
